Time,TemperatureF,DewpointF,PressureIn,WindDirection,WindDirectionDegrees,WindSpeedMPH,WindSpeedGustMPH,Humidity,HourlyPrecipIn,Conditions,Clouds,dailyrainin,SoftwareType,DateUTC
2013-07-25 00:05:00,54.5,47.4,29.97,SW,225,0.0,-999.0,77,-99.99,,,0.00,Acu-Link.com,2013-07-25 04:05:00,
2013-07-25 00:20:00,54.1,47.1,29.97,NE,45,0.0,-999.0,77,-99.99,,,0.00,Acu-Link.com,2013-07-25 04:20:00,
2013-07-25 00:35:00,53.4,46.4,29.97,ENE,67,0.0,-999.0,77,-99.99,,,0.00,Acu-Link.com,2013-07-25 04:35:00,
2013-07-25 01:06:00,52.7,46.7,29.97,NNE,22,0.0,-999.0,80,-99.99,,,0.00,Acu-Link.com,2013-07-25 05:06:00,
2013-07-25 01:21:00,52.2,46.5,29.97,West,270,0.0,-999.0,81,-99.99,,,0.00,Acu-Link.com,2013-07-25 05:21:00,
2013-07-25 01:36:00,51.8,46.5,29.97,NNW,337,0.0,-999.0,82,-99.99,,,0.00,Acu-Link.com,2013-07-25 05:36:00,
2013-07-25 01:51:00,51.4,46.8,29.97,NNE,22,0.0,-999.0,84,-99.99,,,0.00,Acu-Link.com,2013-07-25 05:51:00,
2013-07-25 02:07:00,51.1,46.1,29.97,ESE,112,0.0,-999.0,83,-99.99,,,0.00,Acu-Link.com,2013-07-25 06:07:00,
2013-07-25 02:22:00,50.5,46.2,29.97,East,90,0.0,-999.0,85,-99.99,,,0.00,Acu-Link.com,2013-07-25 06:22:00,
2013-07-25 02:37:00,50.0,46.6,29.97,NNE,22,0.0,-999.0,88,-99.99,,,0.00,Acu-Link.com,2013-07-25 06:37:00,
2013-07-25 02:52:00,49.6,46.2,29.97,NNW,337,0.0,-999.0,88,-99.99,,,0.00,Acu-Link.com,2013-07-25 06:52:00,
2013-07-25 03:07:00,49.5,46.4,29.97,East,90,0.0,-999.0,89,-99.99,,,0.00,Acu-Link.com,2013-07-25 07:07:00,
2013-07-25 03:22:00,49.1,46.3,29.97,ESE,112,0.0,-999.0,90,-99.99,,,0.00,Acu-Link.com,2013-07-25 07:22:00,
2013-07-25 03:37:00,48.7,46.5,29.97,SSE,157,0.0,-999.0,92,-99.99,,,0.00,Acu-Link.com,2013-07-25 07:37:00,
2013-07-25 03:52:00,49.1,46.9,29.97,ESE,112,0.0,-999.0,92,-99.99,,,0.00,Acu-Link.com,2013-07-25 07:52:00,
2013-07-25 04:07:00,49.6,47.1,29.98,SSW,202,0.0,-999.0,91,-99.99,,,0.00,Acu-Link.com,2013-07-25 08:07:00,
2013-07-25 04:23:00,49.6,47.1,29.98,NNE,22,0.0,-999.0,91,-99.99,,,0.00,Acu-Link.com,2013-07-25 08:23:00,
2013-07-25 04:38:00,49.8,47.3,29.98,NE,45,0.0,-999.0,91,-99.99,,,0.00,Acu-Link.com,2013-07-25 08:38:00,
2013-07-25 04:53:00,49.6,47.1,29.99,East,90,0.0,-999.0,91,-99.99,,,0.00,Acu-Link.com,2013-07-25 08:53:00,
2013-07-25 05:08:00,50.2,46.8,29.99,SW,225,0.0,-999.0,88,-99.99,,,0.00,Acu-Link.com,2013-07-25 09:08:00,
2013-07-25 05:23:00,50.4,47.2,30.00,SSW,202,0.0,-999.0,89,-99.99,,,0.00,Acu-Link.com,2013-07-25 09:23:00,
2013-07-25 05:38:00,51.1,47.3,30.00,NE,45,0.0,-999.0,87,-99.99,,,0.00,Acu-Link.com,2013-07-25 09:38:00,
2013-07-25 05:53:00,51.3,47.8,30.01,East,90,0.0,-999.0,88,-99.99,,,0.00,Acu-Link.com,2013-07-25 09:53:00,
2013-07-25 06:08:00,51.4,47.7,30.01,SW,225,0.0,-999.0,87,-99.99,,,0.00,Acu-Link.com,2013-07-25 10:08:00,
2013-07-25 06:23:00,51.8,48.7,30.01,North,0,0.0,-999.0,89,-99.99,,,0.00,Acu-Link.com,2013-07-25 10:23:00,
2013-07-25 06:38:00,52.2,48.7,30.00,NNE,22,0.0,-999.0,88,-99.99,,,0.00,Acu-Link.com,2013-07-25 10:38:00,
2013-07-25 06:53:00,52.5,48.5,30.02,SE,135,0.0,-999.0,86,-99.99,,,0.00,Acu-Link.com,2013-07-25 10:53:00,
2013-07-25 07:08:00,53.6,48.2,30.02,NNE,22,0.0,-999.0,82,-99.99,,,0.00,Acu-Link.com,2013-07-25 11:08:00,
2013-07-25 07:23:00,54.7,49.6,30.02,NE,45,0.0,-999.0,83,-99.99,,,0.00,Acu-Link.com,2013-07-25 11:23:00,
2013-07-25 07:38:00,55.2,48.5,30.02,WNW,292,0.0,-999.0,78,-99.99,,,0.00,Acu-Link.com,2013-07-25 11:38:00,
2013-07-25 07:53:00,55.0,49.0,30.03,East,90,0.0,-999.0,80,-99.99,,,0.00,Acu-Link.com,2013-07-25 11:53:00,
2013-07-25 08:08:00,56.3,50.2,30.05,NE,45,0.0,-999.0,80,-99.99,,,0.00,Acu-Link.com,2013-07-25 12:08:00,
2013-07-25 08:24:00,57.4,50.6,30.04,NE,45,0.0,-999.0,78,-99.99,,,0.00,Acu-Link.com,2013-07-25 12:24:00,
2013-07-25 08:39:00,59.7,51.4,30.05,NNE,22,0.0,-999.0,74,-99.99,,,0.00,Acu-Link.com,2013-07-25 12:39:00,
2013-07-25 08:54:00,60.6,51.2,30.05,SSW,202,0.0,-999.0,71,-99.99,,,0.00,Acu-Link.com,2013-07-25 12:54:00,
2013-07-25 09:09:00,59.4,50.3,30.06,West,270,0.0,-999.0,72,-99.99,,,0.00,Acu-Link.com,2013-07-25 13:09:00,
2013-07-25 09:24:00,60.6,50.4,30.05,SSE,157,0.0,-999.0,69,-99.99,,,0.00,Acu-Link.com,2013-07-25 13:24:00,
2013-07-25 09:39:00,61.0,50.7,30.06,South,180,0.0,-999.0,69,-99.99,,,0.00,Acu-Link.com,2013-07-25 13:39:00,
2013-07-25 09:54:00,61.0,50.3,30.07,NNW,337,0.0,-999.0,68,-99.99,,,0.00,Acu-Link.com,2013-07-25 13:54:00,
2013-07-25 10:09:00,62.2,50.7,30.07,WNW,292,0.0,-999.0,66,-99.99,,,0.00,Acu-Link.com,2013-07-25 14:09:00,
2013-07-25 10:24:00,63.7,51.3,30.06,WSW,247,0.0,-999.0,64,-99.99,,,0.00,Acu-Link.com,2013-07-25 14:24:00,
2013-07-25 10:39:00,64.4,51.1,30.05,SW,225,0.0,-999.0,62,-99.99,,,0.00,Acu-Link.com,2013-07-25 14:39:00,
2013-07-25 10:54:00,65.5,52.1,30.05,NNE,22,0.0,-999.0,62,-99.99,,,0.00,Acu-Link.com,2013-07-25 14:54:00,
2013-07-25 11:09:00,66.0,53.5,30.06,SSW,202,0.0,-999.0,64,-99.99,,,0.00,Acu-Link.com,2013-07-25 15:09:00,
2013-07-25 11:24:00,65.5,53.8,30.06,SW,225,0.0,-999.0,66,-99.99,,,0.00,Acu-Link.com,2013-07-25 15:24:00,
2013-07-25 11:39:00,66.0,54.3,30.06,NNE,22,0.0,-999.0,66,-99.99,,,0.00,Acu-Link.com,2013-07-25 15:39:00,
2013-07-25 11:54:00,66.9,53.9,30.06,NNW,337,0.0,-999.0,63,-99.99,,,0.00,Acu-Link.com,2013-07-25 15:54:00,
2013-07-25 12:09:00,66.7,53.3,30.07,South,180,0.0,-999.0,62,-99.99,,,0.00,Acu-Link.com,2013-07-25 16:09:00,
2013-07-25 12:24:00,67.3,54.2,30.07,SW,225,0.0,-999.0,63,-99.99,,,0.00,Acu-Link.com,2013-07-25 16:24:00,
2013-07-25 12:39:00,68.2,54.7,30.06,South,180,0.0,-999.0,62,-99.99,,,0.00,Acu-Link.com,2013-07-25 16:39:00,
2013-07-25 12:54:00,68.5,55.9,30.06,NE,45,0.0,-999.0,64,-99.99,,,0.00,Acu-Link.com,2013-07-25 16:54:00,
2013-07-25 13:09:00,68.4,56.1,30.06,NNW,337,0.0,-999.0,65,-99.99,,,0.00,Acu-Link.com,2013-07-25 17:09:00,
2013-07-25 13:24:00,70.0,55.9,30.06,West,270,0.0,-999.0,61,-99.99,,,0.00,Acu-Link.com,2013-07-25 17:24:00,
2013-07-25 13:40:00,71.1,56.9,30.06,South,180,0.0,-999.0,61,-99.99,,,0.00,Acu-Link.com,2013-07-25 17:40:00,
2013-07-25 13:55:00,69.3,56.1,30.05,WNW,292,0.0,-999.0,63,-99.99,,,0.00,Acu-Link.com,2013-07-25 17:55:00,
2013-07-25 14:10:00,70.2,56.5,30.05,WNW,292,0.0,-999.0,62,-99.99,,,0.00,Acu-Link.com,2013-07-25 18:10:00,
2013-07-25 14:25:00,70.5,58.2,30.05,South,180,0.0,-999.0,65,-99.99,,,0.00,Acu-Link.com,2013-07-25 18:25:00,
2013-07-25 14:40:00,71.4,57.3,30.05,SSW,202,0.0,-999.0,61,-99.99,,,0.00,Acu-Link.com,2013-07-25 18:40:00,
2013-07-25 14:55:00,70.3,57.6,30.05,WNW,292,0.0,-999.0,64,-99.99,,,0.00,Acu-Link.com,2013-07-25 18:55:00,
2013-07-25 15:10:00,72.5,58.3,30.05,East,90,0.0,-999.0,61,-99.99,,,0.00,Acu-Link.com,2013-07-25 19:10:00,
2013-07-25 15:25:00,71.2,58.0,30.05,SSE,157,0.0,-999.0,63,-99.99,,,0.00,Acu-Link.com,2013-07-25 19:25:00,
2013-07-25 15:40:00,70.3,58.0,30.05,NE,45,0.0,-999.0,65,-99.99,,,0.00,Acu-Link.com,2013-07-25 19:40:00,
2013-07-25 15:55:00,69.8,57.9,30.05,ENE,67,0.0,-999.0,66,-99.99,,,0.00,Acu-Link.com,2013-07-25 19:55:00,
2013-07-25 16:10:00,69.8,58.8,30.04,NE,45,0.0,-999.0,68,-99.99,,,0.00,Acu-Link.com,2013-07-25 20:10:00,
2013-07-25 16:25:00,68.9,58.7,30.04,NW,315,0.0,-999.0,70,-99.99,,,0.00,Acu-Link.com,2013-07-25 20:25:00,
2013-07-25 16:40:00,68.5,59.9,30.04,NE,45,0.0,-999.0,74,-99.99,,,0.00,Acu-Link.com,2013-07-25 20:40:00,
2013-07-25 16:55:00,68.0,58.2,30.05,North,0,0.0,-999.0,71,-99.99,,,0.00,Acu-Link.com,2013-07-25 20:55:00,
2013-07-25 17:10:00,67.8,60.3,30.05,ENE,67,0.0,-999.0,77,-99.99,,,0.00,Acu-Link.com,2013-07-25 21:10:00,
2013-07-25 17:25:00,67.1,58.9,30.05,SW,225,0.0,-999.0,75,-99.99,,,0.00,Acu-Link.com,2013-07-25 21:25:00,
2013-07-25 17:40:00,66.7,59.3,30.04,NE,45,0.0,-999.0,77,-99.99,,,0.00,Acu-Link.com,2013-07-25 21:40:00,
2013-07-25 17:55:00,66.2,59.1,30.04,SSE,157,0.0,-999.0,78,-99.99,,,0.00,Acu-Link.com,2013-07-25 21:55:00,
2013-07-25 18:10:00,65.8,59.5,30.04,SW,225,0.0,-999.0,80,-99.99,,,0.00,Acu-Link.com,2013-07-25 22:10:00,
2013-07-25 18:26:00,65.5,60.2,30.04,SSE,157,0.0,-999.0,83,-99.99,,,0.00,Acu-Link.com,2013-07-25 22:26:00,
2013-07-25 18:41:00,65.3,59.7,30.06,ESE,112,0.0,-999.0,82,-99.99,,,0.00,Acu-Link.com,2013-07-25 22:41:00,
2013-07-25 18:56:00,64.8,59.5,30.06,North,0,0.0,-999.0,83,-99.99,,,0.00,Acu-Link.com,2013-07-25 22:56:00,
2013-07-25 19:11:00,64.0,58.4,30.06,WNW,292,0.0,-999.0,82,-99.99,,,0.00,Acu-Link.com,2013-07-25 23:11:00,
2013-07-25 19:27:00,63.5,59.2,30.07,SE,135,0.0,-999.0,86,-99.99,,,0.00,Acu-Link.com,2013-07-25 23:27:00,
2013-07-25 19:42:00,62.4,59.8,30.07,SSE,157,0.0,-999.0,91,-99.99,,,0.00,Acu-Link.com,2013-07-25 23:42:00,
2013-07-25 19:57:00,61.9,58.9,30.06,West,270,0.0,-999.0,90,-99.99,,,0.00,Acu-Link.com,2013-07-25 23:57:00,
2013-07-25 20:12:00,61.5,59.2,30.06,West,270,0.0,-999.0,92,-99.99,,,0.00,Acu-Link.com,2013-07-26 00:12:00,
2013-07-25 20:27:00,61.3,59.0,30.07,ENE,67,0.0,-999.0,92,-99.99,,,0.00,Acu-Link.com,2013-07-26 00:27:00,
2013-07-25 20:42:00,61.0,58.9,30.07,SE,135,0.0,-999.0,93,-99.99,,,0.00,Acu-Link.com,2013-07-26 00:42:00,
2013-07-25 20:58:00,60.6,58.3,30.06,ENE,67,0.0,-999.0,92,-99.99,,,0.00,Acu-Link.com,2013-07-26 00:58:00,
2013-07-25 21:13:00,60.4,58.4,30.07,SSE,157,0.0,-999.0,93,-99.99,,,0.00,Acu-Link.com,2013-07-26 01:13:00,
2013-07-25 21:28:00,60.3,58.5,30.06,SSE,157,0.0,-999.0,94,-99.99,,,0.00,Acu-Link.com,2013-07-26 01:28:00,
2013-07-25 21:43:00,59.9,58.5,30.06,SSE,157,0.0,-999.0,95,-99.99,,,0.00,Acu-Link.com,2013-07-26 01:43:00,
2013-07-25 21:58:00,59.5,58.4,30.06,SSW,202,0.0,-999.0,96,-99.99,,,0.00,Acu-Link.com,2013-07-26 01:58:00,
2013-07-25 22:13:00,59.5,58.7,30.06,SSE,157,0.0,-999.0,97,-99.99,,,0.00,Acu-Link.com,2013-07-26 02:13:00,
2013-07-25 22:28:00,59.2,58.3,30.06,ESE,112,0.0,-999.0,97,-99.99,,,0.00,Acu-Link.com,2013-07-26 02:28:00,
2013-07-25 22:44:00,59.0,58.1,30.06,South,180,0.0,-999.0,97,-99.99,,,0.00,Acu-Link.com,2013-07-26 02:44:00,
2013-07-25 22:59:00,58.8,58.0,30.06,SSW,202,0.0,-999.0,97,-99.99,,,0.00,Acu-Link.com,2013-07-26 02:59:00,
2013-07-25 23:14:00,58.6,58.1,30.06,South,180,0.0,-999.0,98,-99.99,,,0.00,Acu-Link.com,2013-07-26 03:14:00,
2013-07-25 23:29:00,58.5,57.9,30.05,NNE,22,0.0,-999.0,98,-99.99,,,0.00,Acu-Link.com,2013-07-26 03:29:00,
2013-07-25 23:44:00,58.5,57.9,30.05,NE,45,0.0,-999.0,98,-99.99,,,0.00,Acu-Link.com,2013-07-26 03:44:00,
2013-07-25 23:59:00,58.6,58.1,30.05,SW,225,0.0,-999.0,98,-99.99,,,0.00,Acu-Link.com,2013-07-26 03:59:00,